Home   Weather   Schwäbisch Gmünd   Past weeks
Flag for Germany

Past Weather in Schwäbisch Gmünd, Baden-Württemberg, Germany — Yesterday and Last 2 Weeks

Now
54 °F

Light rain. Passing clouds.


Feels Like: 53 °F
Forecast: 61 / 47 °F
Wind: 5 mph from North

Location: Stuttgart-Echterdingen

Current Time: Oct 15, 2019 at 10:32:42 pm

Latest Report: Oct 15, 2019 at 9:50 pm


Visibility: N/A

Pressure: 29.86 "Hg

Humidity: 94%

Dew Point: 52 °F

Location of Schwäbisch GmündLocation

Past Weather in Schwäbisch Gmünd — Graph

°F

Schwäbisch Gmünd Temperature Yesterday

Maximum temperature yesterday: 77 °F (at 2:50 pm)
Minimum temperature yesterday: 48 °F (at 7:20 am)
Average temperature yesterday: 61 °F

High & Low Weather Summary for the Past Weeks

 TemperatureHumidityPressure
High79 °F (Oct 13, 3:20 pm)100% (Oct 1, 2:50 am)30.18 "Hg (Oct 1, 2:50 am)
Low37 °F (Oct 4, 1:20 am)39% (Oct 13, 4:20 pm)29.65 "Hg (Oct 1, 11:20 pm)
Average54 °F82%29.95 "Hg
* Reported Sep 30 9:20 pm — Oct 15 9:20 pm, Schwäbisch Gmünd. Weather by CustomWeather, © 2019

Note: Actual official high and low records may vary slightly from our data, if they occured in-between our weather recording intervals... More about our weather records

Advertising

Schwäbisch Gmünd Weather History for the Previous 24 Hours

Scroll right to see more
 ConditionsComfort  
Time TempWeatherWind HumidityBarometerVisibility
9:20 pm
Tue, Oct 15
54 °FLight rain. Passing clouds.5 mph94%29.86 "HgN/A
8:50 pm54 °FLight rain. Passing clouds.5 mph100%29.86 "HgN/A
8:20 pm55 °FRain. Partly cloudy.7 mph94%29.83 "Hg6 mi
7:50 pm55 °FRain. Passing clouds.5 mph94%29.83 "Hg6 mi
7:20 pm55 °FRain. Passing clouds.9 mph94%29.80 "HgN/A
6:50 pm59 °FPartly cloudy.6 mph82%29.80 "HgN/A
6:20 pm59 °FBroken clouds.7 mph82%29.77 "HgN/A
5:50 pm61 °FLight rain. Broken clouds.7 mph77%29.77 "HgN/A
5:20 pm61 °FLight rain. Scattered clouds.6 mph77%29.77 "HgN/A
4:50 pm63 °FLight rain. Scattered clouds.8 mph73%29.77 "HgN/A
4:20 pm63 °FLight rain. Scattered clouds.13 mph73%29.74 "HgN/A
3:50 pm63 °FLight rain. Passing clouds.12 mph73%29.74 "HgN/A
3:20 pm64 °FPassing clouds.13 mph68%29.74 "HgN/A
2:50 pm64 °FPassing clouds.10 mph64%29.74 "HgN/A
2:20 pm66 °FPassing clouds.9 mph64%29.74 "HgN/A
1:50 pm66 °FPassing clouds.7 mph60%29.71 "HgN/A
1:20 pm66 °FPassing clouds.10 mph64%29.74 "HgN/A
12:50 pm70 °FSunny.2 mph60%29.74 "Hg10 mi
12:20 pm70 °FSunny.1 mph57%29.74 "Hg10 mi
11:50 am68 °FSunny.2 mph60%29.74 "Hg10 mi
11:20 am64 °FPassing clouds.6 mph73%29.74 "HgN/A
10:50 am63 °FPassing clouds.5 mph73%29.74 "HgN/A
10:20 am59 °FPassing clouds.3 mph77%29.74 "HgN/A
9:50 am57 °FSunny.3 mph82%29.74 "Hg10 mi
9:20 am55 °FSunny.2 mph88%29.74 "Hg10 mi
8:50 am52 °FSunny.2 mph94%29.77 "Hg10 mi
8:20 am46 °FPassing clouds.3 mph93%29.74 "HgN/A
7:50 am48 °FSunny.2 mph100%29.77 "Hg10 mi
7:20 am48 °FLight fog.2 mph100%29.77 "Hg6 mi
6:50 am50 °FLight fog.1 mph100%29.80 "Hg4 mi
6:20 am50 °FLight fog.1 mph100%29.80 "Hg4 mi
5:50 am48 °FLight fog.1 mph100%29.80 "Hg4 mi
5:20 am48 °FLight fog.1 mph100%29.80 "Hg2 mi
4:50 am50 °FLight fog.1 mph100%29.83 "HgN/A
4:20 am50 °FClear.2 mph100%29.83 "Hg10 mi
3:50 am50 °FClear.1 mph100%29.83 "Hg10 mi
3:20 am50 °FClear.3 mph100%29.83 "Hg10 mi
2:50 am52 °FClear.2 mph94%29.86 "Hg10 mi
2:20 am52 °FClear.1 mph100%29.86 "Hg10 mi
1:50 am52 °FClear.2 mph94%29.86 "Hg10 mi
1:20 am55 °FClear.1 mph88%29.86 "Hg10 mi
12:50 am54 °FClear.3 mph88%29.86 "Hg10 mi
12:20 am57 °FClear.2 mph88%29.86 "Hg10 mi
11:50 pm
Mon, Oct 14
59 °FPassing clouds.3 mph82%29.86 "HgN/A
11:20 pm55 °FClear.2 mph82%29.86 "Hg10 mi
10:50 pm55 °FClear.1 mph88%29.89 "Hg10 mi
10:20 pm57 °FClear.3 mph82%29.89 "Hg10 mi
Weather by CustomWeather, © 2019

See weather overview